This is the latest recevied weather packets stored in our database for station/object KC3SOZ. If no packets are shown the sender has not sent any weather packets the latest 10 day(s).
| Time | Temp. | Humidity | Pressure | Rain* | Wind** | Luminosity | Snow |
|---|---|---|---|---|---|---|---|
| 1778240545 | 5° C | 99% | 1014.9 hPa | 0 mm | - | 95 W/m² | - |
| 1778240241 | 4.44° C | 99% | 1014.8 hPa | 0 mm | - | 100 W/m² | - |
| 1778239940 | 4.44° C | 99% | 1014.9 hPa | 0 mm | - | 110 W/m² | - |
| 1778239635 | 3.89° C | 99% | 1015.1 hPa | 0 mm | - | 64 W/m² | - |
| 1778239333 | 3.89° C | 99% | 1014.8 hPa | 0 mm | - | 66 W/m² | - |
| 1778239030 | 3.33° C | 99% | 1014.8 hPa | 0 mm | - | 67 W/m² | - |
| 1778238727 | 3.33° C | 99% | 1014.8 hPa | 0 mm | - | 52 W/m² | - |
| 1778238424 | 3.89° C | 99% | 1014.7 hPa | 0 mm | - | 44 W/m² | - |
| 1778238121 | 4.44° C | 99% | 1015 hPa | 0 mm | - | 61 W/m² | - |
| 1778237821 | 3.89° C | 99% | 1014.8 hPa | 0 mm | - | 62 W/m² | - |
| 1778237518 | 3.33° C | 99% | 1014.7 hPa | 0 mm | - | 61 W/m² | - |
| 1778237216 | 2.78° C | 99% | 1014.9 hPa | 0 mm | - | 42 W/m² | - |
| 1778236912 | 2.22° C | 99% | 1014.9 hPa | 0 mm | - | 33 W/m² | - |
| 1778236609 | 2.22° C | 99% | 1014.7 hPa | 0 mm | - | 29 W/m² | - |
| 1778236307 | 1.67° C | 99% | 1014.7 hPa | 0 mm | - | 25 W/m² | - |
| 1778236004 | 1.67° C | 99% | 1014.4 hPa | 0 mm | - | 20 W/m² | - |
| 1778235702 | 1.67° C | 99% | 1014.6 hPa | 0 mm | - | 17 W/m² | - |
| 1778235398 | 1.11° C | 99% | 1014.5 hPa | 0 mm | - | 13 W/m² | - |
| 1778235096 | 1.67° C | 99% | 1014.5 hPa | 0 mm | - | 10 W/m² | - |
| 1778234793 | 1.67° C | 99% | 1014.4 hPa | 0 mm | - | 7 W/m² | - |
| 1778234491 | 1.67° C | 99% | 1014.3 hPa | 0 mm | - | 5 W/m² | - |
| 1778234188 | 1.67° C | 99% | 1014.3 hPa | 0 mm | - | 3 W/m² | - |
| 1778233885 | 1.11° C | 99% | 1014.2 hPa | 0 mm | - | 1 W/m² | - |
| 1778233582 | 1.67° C | 99% | 1014.1 hPa | 0 mm | - | 1 W/m² | - |
| 1778233278 | 1.67° C | 99% | 1014.3 hPa | 0 mm | - | 0 W/m² | - |
* Rain latest hour (hover to see other rain measurements)
** Current wind speed in m/s (hover to see current wind gust speed)